Погода в Шакке

Италия     37°30′48″N   13°04′40″E
темп.,
°C
ветер,
м/с
пор.,
м/с
влажн.,
%
обл.,
%
осадки,
мм/ч
давл.,
гПа
погр.,
м
12 мая, ср
ср1223:00+16ссз61082100 0.0 1017405
02:00+15сз68872 0.0 1015326
05:00+15сз610885 0.0 1015602
08:00+17сз79759 0.2 1016980
11:00+19сз910590 0.1 10161070
14:00+19зсз1011570 0.1 10161014
17:00+19зсз1011560 0.0 1015849
20:00+17сз810645 0.0 1015373
13 мая, чт
чт1323:00+15ссз6876100 0.0 1016355
02:00+14ссз46741 0.0 1015224
05:00+14ссз35740 0.0 1014193
08:00+16сз47730 0.0 1015445
11:00+19з79594 0.0 1015690
14:00+19з8105866 0.0 1015713
17:00+19з69643 0.0 1014639
20:00+17з45790 0.0 1014148
14 мая, пт
пт1423:00+16зсз23890 0.0 1015192
02:00+16зсз349131 0.0 1015302
05:00+16сз45919 0.0 1014350
08:00+16ссз237765 0.0 1016347
11:00+18юз3366100 0.0 1016418
14:00+18ююз336499 0.0 1016440
17:00+19ю346166 0.0 1014390
20:00+18юв567244 0.0 1013142
15 мая, сб
сб1523:00+17юв3473100 0.0 101479
02:00+17ююв237895 0.0 1014108
05:00+16сз9127893 0.1 1014819
08:00+16ссз9116736 0.1 1015912
11:00+19зсз895563 0.0 1016902
14:00+20зсз91051100 0.0 1015796
17:00+19сз91152100 0.0 1015728
20:00+18сз686084 0.0 1015205
16 мая, вс
вс1623:00+16сз45715 0.0 1016204
02:00+15сз33700 0.0 1016166
05:00+15ссз3480100 0.0 1015229
08:00+17сз24745 0.0 1015278
11:00+19з566296 0.0 1016510
14:00+21з68605 0.0 1015471
17:00+21з68621 0.0 1014396
20:00+20зсз45660 0.0 101354